Time,TemperatureF,DewpointF,PressureIn,WindDirection,WindDirectionDegrees,WindSpeedMPH,WindSpeedGustMPH,Humidity,HourlyPrecipIn,Conditions,Clouds,dailyrainin,SoftwareType,DateUTC
2013-05-11 00:01:00,76.4,66.3,30.04,South,180,0.0,0.0,71,0.00,,,0.00,WUHU216HW,2013-05-11 04:01:00,
2013-05-11 00:06:00,76.4,66.3,30.04,South,180,0.0,0.0,71,0.00,,,0.00,WUHU216HW,2013-05-11 04:06:00,
2013-05-11 00:11:00,76.2,66.2,30.04,South,180,0.0,0.0,71,0.00,,,0.00,WUHU216HW,2013-05-11 04:11:00,
2013-05-11 00:16:00,76.2,66.2,30.04,South,180,0.0,0.0,71,0.00,,,0.00,WUHU216HW,2013-05-11 04:16:00,
2013-05-11 00:21:00,76.1,66.0,30.04,South,180,0.0,0.0,71,0.00,,,0.00,WUHU216HW,2013-05-11 04:21:00,
2013-05-11 00:26:00,75.9,65.8,30.05,South,180,0.0,0.0,71,0.00,,,0.00,WUHU216HW,2013-05-11 04:26:00,
2013-05-11 00:31:00,75.9,65.8,30.05,South,180,0.0,0.0,71,0.00,,,0.00,WUHU216HW,2013-05-11 04:31:00,
2013-05-11 00:36:00,75.7,65.6,30.05,South,180,0.0,0.0,71,0.00,,,0.00,WUHU216HW,2013-05-11 04:36:00,
2013-05-11 00:41:00,75.3,65.7,30.05,South,180,0.0,0.0,72,0.00,,,0.00,WUHU216HW,2013-05-11 04:41:00,
2013-05-11 00:46:00,75.0,65.3,30.05,South,180,0.0,0.0,72,0.00,,,0.00,WUHU216HW,2013-05-11 04:46:00,
2013-05-11 00:51:00,75.0,65.3,30.05,South,180,0.0,0.0,72,0.00,,,0.00,WUHU216HW,2013-05-11 04:51:00,
2013-05-11 00:56:00,74.8,65.3,30.05,South,180,0.0,0.0,72,0.00,,,0.00,WUHU216HW,2013-05-11 04:56:00,
2013-05-11 01:01:00,74.8,64.8,30.05,South,180,0.0,0.0,71,0.00,,,0.00,WUHU216HW,2013-05-11 05:01:00,
2013-05-11 01:06:00,74.6,65.0,30.05,South,180,0.0,0.0,72,0.00,,,0.00,WUHU216HW,2013-05-11 05:06:00,
2013-05-11 01:11:00,74.4,64.8,30.04,South,180,0.0,0.0,72,0.00,,,0.00,WUHU216HW,2013-05-11 05:11:00,
2013-05-11 01:16:00,74.4,64.8,30.05,South,180,0.0,0.0,72,0.00,,,0.00,WUHU216HW,2013-05-11 05:16:00,
2013-05-11 01:21:00,74.4,64.8,30.04,South,180,0.0,0.0,72,0.00,,,0.00,WUHU216HW,2013-05-11 05:21:00,
2013-05-11 01:26:00,74.3,64.7,30.05,South,180,0.0,0.0,72,0.00,,,0.00,WUHU216HW,2013-05-11 05:26:00,
2013-05-11 01:31:00,74.1,64.9,30.04,South,180,0.0,0.0,73,0.00,,,0.00,WUHU216HW,2013-05-11 05:31:00,
2013-05-11 01:36:00,74.1,64.9,30.04,South,180,0.0,0.0,73,0.00,,,0.00,WUHU216HW,2013-05-11 05:36:00,
2013-05-11 01:41:00,74.1,64.9,30.04,South,180,0.0,0.0,73,0.00,,,0.00,WUHU216HW,2013-05-11 05:41:00,
2013-05-11 01:46:00,74.1,64.9,30.04,South,180,0.0,0.0,73,0.00,,,0.00,WUHU216HW,2013-05-11 05:46:00,
2013-05-11 01:51:00,74.1,64.9,30.04,South,180,0.0,0.0,73,0.00,,,0.00,WUHU216HW,2013-05-11 05:51:00,
2013-05-11 01:56:00,74.1,64.9,30.04,South,180,0.0,0.0,73,0.00,,,0.00,WUHU216HW,2013-05-11 05:56:00,
2013-05-11 02:01:00,74.1,65.3,30.03,South,180,0.0,0.0,74,0.00,,,0.00,WUHU216HW,2013-05-11 06:01:00,
2013-05-11 02:06:00,74.1,65.3,30.04,South,180,0.0,0.0,74,0.00,,,0.00,WUHU216HW,2013-05-11 06:06:00,
2013-05-11 02:11:00,73.9,65.1,30.03,South,180,0.0,0.0,74,0.00,,,0.00,WUHU216HW,2013-05-11 06:11:00,
2013-05-11 02:16:00,73.9,65.1,30.03,South,180,0.0,0.0,74,0.00,,,0.00,WUHU216HW,2013-05-11 06:16:00,
2013-05-11 02:21:00,73.9,65.5,30.03,South,180,0.0,0.0,75,0.00,,,0.00,WUHU216HW,2013-05-11 06:21:00,
2013-05-11 02:26:00,73.9,65.5,30.03,South,180,0.0,0.0,75,0.00,,,0.00,WUHU216HW,2013-05-11 06:26:00,
2013-05-11 02:31:00,73.9,65.5,30.03,South,180,0.0,0.0,75,0.00,,,0.00,WUHU216HW,2013-05-11 06:31:00,
2013-05-11 02:36:00,73.7,65.3,30.02,South,180,0.0,0.0,75,0.00,,,0.00,WUHU216HW,2013-05-11 06:36:00,
2013-05-11 02:41:00,73.7,65.3,30.02,South,180,0.0,0.0,75,0.00,,,0.00,WUHU216HW,2013-05-11 06:41:00,
2013-05-11 02:46:00,73.5,65.1,30.02,South,180,0.0,0.0,75,0.00,,,0.00,WUHU216HW,2013-05-11 06:46:00,
2013-05-11 02:51:00,73.5,65.1,30.02,South,180,0.6,0.6,75,0.00,,,0.00,WUHU216HW,2013-05-11 06:51:00,
2013-05-11 02:56:00,73.5,65.5,30.01,South,180,0.0,0.6,76,0.00,,,0.00,WUHU216HW,2013-05-11 06:56:00,
2013-05-11 03:01:00,73.5,65.5,30.01,South,180,0.0,0.0,76,0.00,,,0.00,WUHU216HW,2013-05-11 07:01:00,
2013-05-11 03:06:00,73.4,65.4,30.01,South,180,0.0,0.0,76,0.00,,,0.00,WUHU216HW,2013-05-11 07:06:00,
2013-05-11 03:11:00,73.2,65.6,30.01,South,180,1.3,1.3,77,0.00,,,0.00,WUHU216HW,2013-05-11 07:11:00,
2013-05-11 03:16:00,73.2,65.6,30.01,South,180,0.0,1.3,77,0.00,,,0.00,WUHU216HW,2013-05-11 07:16:00,
2013-05-11 03:21:00,73.2,65.6,30.01,South,180,0.0,0.0,77,0.00,,,0.00,WUHU216HW,2013-05-11 07:21:00,
2013-05-11 03:26:00,73.2,65.6,30.02,South,180,0.0,0.0,77,0.00,,,0.00,WUHU216HW,2013-05-11 07:26:00,
2013-05-11 03:31:00,73.2,65.6,30.01,South,180,0.0,0.0,77,0.00,,,0.00,WUHU216HW,2013-05-11 07:31:00,
2013-05-11 03:36:00,73.0,65.4,30.02,South,180,0.0,0.8,77,0.00,,,0.00,WUHU216HW,2013-05-11 07:36:00,
2013-05-11 03:41:00,73.0,65.4,30.02,South,180,0.0,0.8,77,0.00,,,0.00,WUHU216HW,2013-05-11 07:41:00,
2013-05-11 03:46:00,72.8,65.4,30.02,South,180,0.0,0.0,77,0.00,,,0.00,WUHU216HW,2013-05-11 07:46:00,
2013-05-11 03:51:00,72.6,65.0,30.01,South,180,0.0,0.0,77,0.00,,,0.00,WUHU216HW,2013-05-11 07:51:00,
2013-05-11 03:56:00,72.6,65.0,30.01,South,180,0.0,0.0,77,0.00,,,0.00,WUHU216HW,2013-05-11 07:56:00,
2013-05-11 04:01:00,72.5,64.8,30.01,South,180,0.0,0.0,77,0.00,,,0.00,WUHU216HW,2013-05-11 08:01:00,
2013-05-11 04:06:00,72.5,64.8,30.00,South,180,0.0,0.0,77,0.00,,,0.00,WUHU216HW,2013-05-11 08:06:00,
2013-05-11 04:11:00,72.5,64.8,30.00,South,180,0.0,0.0,77,0.00,,,0.00,WUHU216HW,2013-05-11 08:11:00,
2013-05-11 04:16:00,72.3,64.7,30.00,South,180,0.0,0.0,77,0.00,,,0.00,WUHU216HW,2013-05-11 08:16:00,
2013-05-11 04:21:00,72.3,64.7,29.99,South,180,0.0,0.0,77,0.00,,,0.00,WUHU216HW,2013-05-11 08:21:00,
2013-05-11 04:26:00,72.3,64.7,29.99,South,180,0.0,0.0,77,0.00,,,0.00,WUHU216HW,2013-05-11 08:26:00,
2013-05-11 04:31:00,72.3,65.0,29.98,South,180,0.0,0.0,78,0.00,,,0.00,WUHU216HW,2013-05-11 08:31:00,
2013-05-11 04:36:00,72.3,65.0,29.98,South,180,0.0,0.0,78,0.00,,,0.00,WUHU216HW,2013-05-11 08:36:00,
2013-05-11 04:41:00,72.1,64.9,29.98,South,180,0.0,0.0,78,0.00,,,0.00,WUHU216HW,2013-05-11 08:41:00,
2013-05-11 04:46:00,72.1,64.9,29.98,South,180,0.0,0.0,78,0.00,,,0.00,WUHU216HW,2013-05-11 08:46:00,
2013-05-11 04:51:00,71.9,64.7,29.98,South,180,0.0,0.0,78,0.00,,,0.00,WUHU216HW,2013-05-11 08:51:00,
2013-05-11 04:56:00,71.9,65.1,29.98,South,180,0.0,0.0,79,0.00,,,0.00,WUHU216HW,2013-05-11 08:56:00,
2013-05-11 05:01:00,71.7,64.9,29.98,South,180,0.0,0.0,79,0.00,,,0.00,WUHU216HW,2013-05-11 09:01:00,
2013-05-11 05:06:00,71.7,64.9,29.99,South,180,0.0,0.0,79,0.00,,,0.00,WUHU216HW,2013-05-11 09:06:00,
2013-05-11 05:11:00,71.7,64.5,29.98,South,180,0.0,0.0,78,0.00,,,0.00,WUHU216HW,2013-05-11 09:11:00,
2013-05-11 05:16:00,71.4,64.1,29.98,South,180,0.0,0.0,78,0.00,,,0.00,WUHU216HW,2013-05-11 09:16:00,
2013-05-11 05:21:00,71.4,64.1,29.98,South,180,0.0,0.0,78,0.00,,,0.00,WUHU216HW,2013-05-11 09:21:00,
2013-05-11 05:26:00,71.4,64.5,29.99,South,180,0.0,0.0,79,0.00,,,0.00,WUHU216HW,2013-05-11 09:26:00,
2013-05-11 05:31:00,71.4,64.5,29.99,South,180,0.0,0.0,79,0.00,,,0.00,WUHU216HW,2013-05-11 09:31:00,
2013-05-11 05:36:00,71.4,64.5,29.99,South,180,0.0,0.0,79,0.00,,,0.00,WUHU216HW,2013-05-11 09:36:00,
2013-05-11 05:41:00,71.4,64.5,29.99,South,180,0.0,0.0,79,0.00,,,0.00,WUHU216HW,2013-05-11 09:41:00,
2013-05-11 05:46:00,71.4,64.1,29.99,South,180,0.0,0.0,78,0.00,,,0.00,WUHU216HW,2013-05-11 09:46:00,
2013-05-11 05:51:00,71.2,64.0,29.99,South,180,0.0,0.0,78,0.00,,,0.00,WUHU216HW,2013-05-11 09:51:00,
2013-05-11 05:56:00,71.2,64.0,30.00,South,180,0.0,0.0,78,0.00,,,0.00,WUHU216HW,2013-05-11 09:56:00,
2013-05-11 06:01:00,70.8,63.6,30.00,South,180,0.0,0.0,78,0.00,,,0.00,WUHU216HW,2013-05-11 10:01:00,
2013-05-11 06:06:00,70.8,63.6,30.00,South,180,0.0,0.0,78,0.00,,,0.00,WUHU216HW,2013-05-11 10:06:00,
2013-05-11 06:11:00,70.7,63.4,30.00,South,180,0.0,0.0,78,0.00,,,0.00,WUHU216HW,2013-05-11 10:11:00,
2013-05-11 06:16:00,70.5,63.2,30.00,South,180,0.0,0.0,78,0.00,,,0.00,WUHU216HW,2013-05-11 10:16:00,
2013-05-11 06:21:00,70.5,63.2,30.01,South,180,0.0,0.0,78,0.00,,,0.00,WUHU216HW,2013-05-11 10:21:00,
2013-05-11 06:26:00,70.5,63.2,30.01,South,180,0.0,0.0,78,0.00,,,0.00,WUHU216HW,2013-05-11 10:26:00,
2013-05-11 06:31:00,70.3,63.1,30.01,South,180,0.0,0.0,78,0.00,,,0.00,WUHU216HW,2013-05-11 10:31:00,
2013-05-11 06:36:00,70.3,63.1,30.01,South,180,0.0,0.0,78,0.00,,,0.00,WUHU216HW,2013-05-11 10:36:00,
2013-05-11 06:41:00,70.3,63.1,30.01,South,180,0.0,0.0,78,0.00,,,0.00,WUHU216HW,2013-05-11 10:41:00,
2013-05-11 06:46:00,70.1,62.9,30.01,South,180,0.0,0.0,78,0.00,,,0.00,WUHU216HW,2013-05-11 10:46:00,
2013-05-11 06:51:00,70.1,62.9,30.01,South,180,0.0,0.0,78,0.00,,,0.00,WUHU216HW,2013-05-11 10:51:00,
2013-05-11 06:56:00,69.9,62.7,30.01,South,180,0.0,0.0,78,0.00,,,0.00,WUHU216HW,2013-05-11 10:56:00,
2013-05-11 07:01:00,69.9,62.7,30.02,South,180,0.0,0.0,78,0.00,,,0.00,WUHU216HW,2013-05-11 11:01:00,
2013-05-11 07:06:00,69.9,63.1,30.01,South,180,0.0,0.0,79,0.00,,,0.00,WUHU216HW,2013-05-11 11:06:00,
2013-05-11 07:11:00,69.9,63.5,30.01,South,180,0.0,0.0,80,0.00,,,0.00,WUHU216HW,2013-05-11 11:11:00,
2013-05-11 07:16:00,69.9,63.5,30.01,South,180,0.0,0.0,80,0.00,,,0.00,WUHU216HW,2013-05-11 11:16:00,
2013-05-11 07:21:00,69.9,63.5,30.01,South,180,0.0,0.0,80,0.00,,,0.00,WUHU216HW,2013-05-11 11:21:00,
2013-05-11 07:26:00,69.9,63.5,30.01,South,180,0.0,0.0,80,0.00,,,0.00,WUHU216HW,2013-05-11 11:26:00,
2013-05-11 07:31:00,70.1,63.6,30.01,South,180,0.0,0.0,80,0.00,,,0.00,WUHU216HW,2013-05-11 11:31:00,
2013-05-11 07:36:00,70.3,63.8,30.01,South,180,0.0,0.0,80,0.00,,,0.00,WUHU216HW,2013-05-11 11:36:00,
2013-05-11 07:41:00,70.3,63.8,30.01,South,180,0.0,0.0,80,0.00,,,0.00,WUHU216HW,2013-05-11 11:41:00,
2013-05-11 07:46:00,70.5,64.3,30.02,South,180,0.0,0.0,81,0.00,,,0.00,WUHU216HW,2013-05-11 11:46:00,
2013-05-11 07:51:00,70.8,65.4,30.02,South,180,0.0,0.0,83,0.00,,,0.00,WUHU216HW,2013-05-11 11:51:00,
2013-05-11 07:56:00,71.2,65.7,30.02,South,180,0.0,0.0,83,0.00,,,0.00,WUHU216HW,2013-05-11 11:56:00,
2013-05-11 08:01:00,71.4,65.9,30.02,South,180,0.0,1.1,83,0.00,,,0.00,WUHU216HW,2013-05-11 12:01:00,
2013-05-11 08:06:00,71.7,66.6,30.02,South,180,0.0,1.1,84,0.00,,,0.00,WUHU216HW,2013-05-11 12:06:00,
2013-05-11 08:11:00,71.9,66.8,30.03,South,180,0.0,0.6,84,0.00,,,0.00,WUHU216HW,2013-05-11 12:11:00,
2013-05-11 08:16:00,72.3,67.5,30.03,South,180,1.7,1.7,85,0.00,,,0.00,WUHU216HW,2013-05-11 12:16:00,
2013-05-11 08:21:00,72.6,67.9,30.02,South,180,0.8,2.2,85,0.00,,,0.00,WUHU216HW,2013-05-11 12:21:00,
2013-05-11 08:26:00,73.0,68.6,30.03,South,180,2.2,2.4,86,0.00,,,0.00,WUHU216HW,2013-05-11 12:26:00,
2013-05-11 08:31:00,73.4,68.9,30.03,South,180,0.0,3.5,86,0.00,,,0.00,WUHU216HW,2013-05-11 12:31:00,
2013-05-11 08:36:00,73.7,69.3,30.03,South,180,0.4,3.5,86,0.00,,,0.00,WUHU216HW,2013-05-11 12:36:00,
2013-05-11 08:41:00,74.1,69.3,30.03,South,180,0.6,3.1,85,0.00,,,0.00,WUHU216HW,2013-05-11 12:41:00,
2013-05-11 08:46:00,74.4,69.7,30.03,South,180,0.0,3.1,85,0.00,,,0.00,WUHU216HW,2013-05-11 12:46:00,
2013-05-11 08:51:00,75.0,70.0,30.02,SSE,158,0.0,2.6,85,0.00,,,0.00,WUHU216HW,2013-05-11 12:51:00,
2013-05-11 08:56:00,75.3,70.9,30.02,SE,135,0.0,2.6,86,0.00,,,0.00,WUHU216HW,2013-05-11 12:56:00,
2013-05-11 09:01:00,75.7,70.9,30.02,SSW,203,4.2,4.2,85,0.00,,,0.00,WUHU216HW,2013-05-11 13:01:00,
2013-05-11 09:06:00,76.1,71.2,30.02,South,180,4.2,6.2,85,0.00,,,0.00,WUHU216HW,2013-05-11 13:06:00,
2013-05-11 09:11:00,76.6,71.4,30.02,NW,315,3.3,6.2,84,0.00,,,0.00,WUHU216HW,2013-05-11 13:11:00,
2013-05-11 09:16:00,76.8,71.6,30.03,SSW,203,4.6,4.6,84,0.00,,,0.00,WUHU216HW,2013-05-11 13:16:00,
2013-05-11 09:21:00,77.1,71.6,30.03,SSW,203,0.6,4.6,83,0.00,,,0.00,WUHU216HW,2013-05-11 13:21:00,
2013-05-11 09:26:00,77.5,71.9,30.02,SSE,158,2.9,5.5,83,0.00,,,0.00,WUHU216HW,2013-05-11 13:26:00,
2013-05-11 09:31:00,77.9,71.9,30.03,WNW,293,2.9,5.5,82,0.00,,,0.00,WUHU216HW,2013-05-11 13:31:00,
2013-05-11 09:36:00,78.4,71.9,30.03,SSW,203,3.8,5.5,82,0.00,,,0.00,WUHU216HW,2013-05-11 13:36:00,
2013-05-11 09:41:00,78.6,72.3,30.03,SSW,203,6.7,6.9,81,0.00,,,0.00,WUHU216HW,2013-05-11 13:41:00,
2013-05-11 09:46:00,78.9,72.3,30.03,SSW,203,4.2,6.9,80,0.00,,,0.00,WUHU216HW,2013-05-11 13:46:00,
2013-05-11 09:51:00,79.1,72.5,30.02,South,180,3.3,5.8,80,0.00,,,0.00,WUHU216HW,2013-05-11 13:51:00,
2013-05-11 09:56:00,79.3,72.4,30.04,South,180,1.7,5.8,79,0.00,,,0.00,WUHU216HW,2013-05-11 13:56:00,
2013-05-11 10:01:00,79.7,72.6,30.03,SSW,203,3.8,5.8,79,0.00,,,0.00,WUHU216HW,2013-05-11 14:01:00,
2013-05-11 10:06:00,79.8,72.4,30.04,NW,315,0.0,6.4,78,0.00,,,0.00,WUHU216HW,2013-05-11 14:06:00,
2013-05-11 10:11:00,80.2,72.3,30.03,SSW,203,4.2,6.4,77,0.00,,,0.00,WUHU216HW,2013-05-11 14:11:00,
2013-05-11 10:16:00,80.6,72.7,30.03,South,180,6.0,6.0,77,0.00,,,0.00,WUHU216HW,2013-05-11 14:16:00,
2013-05-11 10:21:00,80.7,73.0,30.04,South,180,4.6,6.9,77,0.00,,,0.00,WUHU216HW,2013-05-11 14:21:00,
2013-05-11 10:26:00,81.1,72.8,30.03,SW,225,2.6,6.9,76,0.00,,,0.00,WUHU216HW,2013-05-11 14:26:00,
2013-05-11 10:31:00,81.3,72.6,30.03,SSW,203,5.8,5.8,75,0.00,,,0.00,WUHU216HW,2013-05-11 14:31:00,
2013-05-11 10:36:00,81.5,72.4,30.03,NW,315,0.0,6.7,74,0.00,,,0.00,WUHU216HW,2013-05-11 14:36:00,
2013-05-11 10:41:00,81.5,71.9,30.03,WNW,293,4.9,6.7,73,0.00,,,0.00,WUHU216HW,2013-05-11 14:41:00,
2013-05-11 10:46:00,82.0,72.9,30.03,WNW,293,3.3,6.0,74,0.00,,,0.00,WUHU216HW,2013-05-11 14:46:00,
2013-05-11 10:51:00,82.2,72.6,30.03,SSW,203,7.6,7.6,73,0.00,,,0.00,WUHU216HW,2013-05-11 14:51:00,
2013-05-11 10:56:00,82.7,72.3,30.04,South,180,0.8,8.7,71,0.00,,,0.00,WUHU216HW,2013-05-11 14:56:00,
2013-05-11 11:01:00,83.1,72.5,30.03,South,180,6.9,8.7,71,0.00,,,0.00,WUHU216HW,2013-05-11 15:01:00,
2013-05-11 11:06:00,83.4,73.0,30.03,SSE,158,2.4,6.9,70,0.00,,,0.00,WUHU216HW,2013-05-11 15:06:00,
2013-05-11 11:11:00,83.8,72.5,30.03,SW,225,5.3,7.6,69,0.00,,,0.00,WUHU216HW,2013-05-11 15:11:00,
2013-05-11 11:16:00,84.0,72.7,30.02,SSE,158,4.9,7.6,69,0.00,,,0.00,WUHU216HW,2013-05-11 15:16:00,
2013-05-11 11:21:00,84.3,73.1,30.02,South,180,3.5,7.1,69,0.00,,,0.00,WUHU216HW,2013-05-11 15:21:00,
2013-05-11 11:26:00,84.7,73.0,30.02,SSW,203,2.9,5.3,68,0.00,,,0.00,WUHU216HW,2013-05-11 15:26:00,
2013-05-11 11:31:00,85.2,73.0,30.02,WSW,248,4.2,4.9,67,0.00,,,0.00,WUHU216HW,2013-05-11 15:31:00,
2013-05-11 11:36:00,85.6,72.5,30.02,WSW,248,0.0,4.4,65,0.00,,,0.00,WUHU216HW,2013-05-11 15:36:00,
2013-05-11 11:41:00,85.8,72.2,30.02,SSW,203,2.9,8.2,64,0.00,,,0.00,WUHU216HW,2013-05-11 15:41:00,
2013-05-11 11:46:00,85.6,72.0,30.02,SW,225,1.7,8.2,64,0.00,,,0.00,WUHU216HW,2013-05-11 15:46:00,
2013-05-11 11:51:00,85.6,72.5,30.02,SSW,203,5.3,5.5,65,0.00,,,0.00,WUHU216HW,2013-05-11 15:51:00,
2013-05-11 11:56:00,85.2,71.2,30.01,West,270,2.2,6.9,63,0.00,,,0.00,WUHU216HW,2013-05-11 15:56:00,
2013-05-11 12:01:00,85.6,72.0,30.01,WNW,293,2.6,6.9,64,0.00,,,0.00,WUHU216HW,2013-05-11 16:01:00,
2013-05-11 12:06:00,85.4,72.5,30.01,South,180,4.2,6.0,64,0.00,,,0.00,WUHU216HW,2013-05-11 16:06:00,
2013-05-11 12:11:00,85.8,72.6,30.01,SSW,203,4.0,7.1,65,0.00,,,0.00,WUHU216HW,2013-05-11 16:11:00,
2013-05-11 12:16:00,86.3,71.3,30.01,WSW,248,3.1,7.1,61,0.00,,,0.00,WUHU216HW,2013-05-11 16:16:00,
2013-05-11 12:21:00,86.7,71.6,30.01,SSW,203,2.0,8.2,61,0.00,,,0.00,WUHU216HW,2013-05-11 16:21:00,
2013-05-11 12:26:00,87.0,72.5,30.00,SW,225,3.3,8.2,62,0.00,,,0.00,WUHU216HW,2013-05-11 16:26:00,
2013-05-11 12:31:00,87.6,71.6,30.00,SW,225,3.8,4.2,59,0.00,,,0.00,WUHU216HW,2013-05-11 16:31:00,
2013-05-11 12:36:00,87.9,71.9,30.00,WNW,293,5.3,6.7,58,0.00,,,0.00,WUHU216HW,2013-05-11 16:36:00,
2013-05-11 12:41:00,87.9,71.4,30.00,West,270,3.3,6.7,58,0.00,,,0.00,WUHU216HW,2013-05-11 16:41:00,
2013-05-11 12:46:00,88.1,72.1,30.00,West,270,2.4,6.4,59,0.00,,,0.00,WUHU216HW,2013-05-11 16:46:00,
2013-05-11 12:51:00,88.3,72.2,30.00,SSW,203,8.5,12.0,59,0.00,,,0.00,WUHU216HW,2013-05-11 16:51:00,
2013-05-11 12:56:00,88.8,73.2,30.00,SSE,158,2.6,12.0,60,0.00,,,0.00,WUHU216HW,2013-05-11 16:56:00,
2013-05-11 13:01:00,88.8,72.2,30.00,WSW,248,1.3,4.6,58,0.00,,,0.00,WUHU216HW,2013-05-11 17:01:00,
2013-05-11 13:06:00,88.5,71.8,30.00,West,270,2.0,7.8,58,0.00,,,0.00,WUHU216HW,2013-05-11 17:06:00,
2013-05-11 13:11:00,88.7,71.5,30.00,WSW,248,1.7,7.8,57,0.00,,,0.00,WUHU216HW,2013-05-11 17:11:00,
2013-05-11 13:16:00,88.5,70.8,30.00,NW,315,3.3,6.0,56,0.00,,,0.00,WUHU216HW,2013-05-11 17:16:00,
2013-05-11 13:21:00,88.3,70.1,30.00,WNW,293,3.8,6.0,55,0.00,,,0.00,WUHU216HW,2013-05-11 17:21:00,
2013-05-11 13:26:00,87.8,70.1,29.99,SSW,203,2.0,4.9,56,0.00,,,0.00,WUHU216HW,2013-05-11 17:26:00,
2013-05-11 13:31:00,87.4,70.3,29.99,WSW,248,2.0,4.9,57,0.00,,,0.00,WUHU216HW,2013-05-11 17:31:00,
2013-05-11 13:36:00,87.6,71.6,29.99,West,270,5.1,5.1,59,0.00,,,0.00,WUHU216HW,2013-05-11 17:36:00,
2013-05-11 13:41:00,88.1,70.4,29.99,WSW,248,3.3,8.0,57,0.00,,,0.00,WUHU216HW,2013-05-11 17:41:00,
2013-05-11 13:46:00,88.8,72.2,29.99,South,180,4.2,8.0,58,0.00,,,0.00,WUHU216HW,2013-05-11 17:46:00,
2013-05-11 13:51:00,89.4,71.6,29.98,West,270,3.8,5.5,56,0.00,,,0.00,WUHU216HW,2013-05-11 17:51:00,
2013-05-11 13:56:00,89.7,71.4,29.98,WSW,248,2.9,5.5,55,0.00,,,0.00,WUHU216HW,2013-05-11 17:56:00,
2013-05-11 14:01:00,90.1,71.7,29.99,WSW,248,2.2,8.0,55,0.00,,,0.00,WUHU216HW,2013-05-11 18:01:00,
2013-05-11 14:06:00,90.3,71.3,29.98,West,270,3.3,8.0,54,0.00,,,0.00,WUHU216HW,2013-05-11 18:06:00,
2013-05-11 14:11:00,90.6,71.6,29.98,WSW,248,4.2,4.6,54,0.00,,,0.00,WUHU216HW,2013-05-11 18:11:00,
2013-05-11 14:16:00,91.0,73.0,29.98,SW,225,5.8,6.0,56,0.00,,,0.00,WUHU216HW,2013-05-11 18:16:00,
2013-05-11 14:21:00,91.5,71.9,29.97,SW,225,1.5,6.2,53,0.00,,,0.00,WUHU216HW,2013-05-11 18:21:00,
2013-05-11 14:26:00,91.7,72.1,29.97,SSW,203,5.3,6.2,53,0.00,,,0.00,WUHU216HW,2013-05-11 18:26:00,
2013-05-11 14:31:00,91.7,72.1,29.98,SW,225,6.4,6.4,53,0.00,,,0.00,WUHU216HW,2013-05-11 18:31:00,
2013-05-11 14:36:00,91.5,71.9,29.97,WSW,248,1.7,6.4,53,0.00,,,0.00,WUHU216HW,2013-05-11 18:36:00,
2013-05-11 14:41:00,91.0,70.7,29.96,NW,315,2.9,4.2,52,0.00,,,0.00,WUHU216HW,2013-05-11 18:41:00,
2013-05-11 14:46:00,90.5,70.4,29.96,NW,315,0.8,4.2,52,0.00,,,0.00,WUHU216HW,2013-05-11 18:46:00,
2013-05-11 14:51:00,90.1,70.6,29.96,WNW,293,4.9,4.9,53,0.00,,,0.00,WUHU216HW,2013-05-11 18:51:00,
2013-05-11 14:56:00,89.6,70.7,29.96,WNW,293,0.0,4.9,54,0.00,,,0.00,WUHU216HW,2013-05-11 18:56:00,
2013-05-11 15:01:00,89.2,70.9,29.96,WNW,293,0.0,3.3,55,0.00,,,0.00,WUHU216HW,2013-05-11 19:01:00,
2013-05-11 15:06:00,88.8,71.1,29.96,WNW,293,0.0,1.7,56,0.00,,,0.00,WUHU216HW,2013-05-11 19:06:00,
2013-05-11 15:11:00,88.7,71.5,29.96,WNW,293,0.0,1.3,57,0.00,,,0.00,WUHU216HW,2013-05-11 19:11:00,
2013-05-11 15:16:00,88.3,71.1,29.96,WNW,293,0.0,0.0,57,0.00,,,0.00,WUHU216HW,2013-05-11 19:16:00,
2013-05-11 15:21:00,88.3,71.7,29.96,WNW,293,0.0,0.0,58,0.00,,,0.00,WUHU216HW,2013-05-11 19:21:00,
2013-05-11 15:26:00,88.3,71.1,29.96,WNW,293,0.6,0.6,57,0.00,,,0.00,WUHU216HW,2013-05-11 19:26:00,
2013-05-11 15:31:00,88.3,71.1,29.96,WNW,293,0.0,0.6,57,0.00,,,0.00,WUHU216HW,2013-05-11 19:31:00,
2013-05-11 15:36:00,88.5,71.8,29.95,WSW,248,3.3,3.3,58,0.00,,,0.00,WUHU216HW,2013-05-11 19:36:00,
2013-05-11 15:41:00,89.4,70.5,29.95,WSW,248,2.9,6.4,54,0.00,,,0.00,WUHU216HW,2013-05-11 19:41:00,
2013-05-11 15:46:00,90.3,70.2,29.95,WNW,293,2.4,6.4,52,0.00,,,0.00,WUHU216HW,2013-05-11 19:46:00,
2013-05-11 15:51:00,91.2,70.5,29.95,West,270,3.1,6.4,51,0.00,,,0.00,WUHU216HW,2013-05-11 19:51:00,
2013-05-11 15:56:00,91.5,70.8,29.95,WNW,293,0.6,4.9,51,0.00,,,0.00,WUHU216HW,2013-05-11 19:56:00,
2013-05-11 16:01:00,91.7,72.6,29.95,WNW,293,3.1,3.1,54,0.00,,,0.00,WUHU216HW,2013-05-11 20:01:00,
2013-05-11 16:06:00,91.2,73.0,29.95,WNW,293,0.0,3.1,55,0.00,,,0.00,WUHU216HW,2013-05-11 20:06:00,
2013-05-11 16:11:00,91.0,72.5,29.95,West,270,0.0,0.6,55,0.00,,,0.00,WUHU216HW,2013-05-11 20:11:00,
2013-05-11 16:16:00,90.6,72.2,29.94,North,0,0.0,0.6,55,0.00,,,0.00,WUHU216HW,2013-05-11 20:16:00,
2013-05-11 16:21:00,90.1,72.2,29.94,WNW,293,0.0,0.6,56,0.00,,,0.00,WUHU216HW,2013-05-11 20:21:00,
2013-05-11 16:26:00,90.1,72.8,29.94,North,0,0.0,0.0,57,0.00,,,0.00,WUHU216HW,2013-05-11 20:26:00,
2013-05-11 16:31:00,90.3,73.5,29.94,WNW,293,0.0,1.7,58,0.00,,,0.00,WUHU216HW,2013-05-11 20:31:00,
2013-05-11 16:36:00,90.3,72.9,29.94,WSW,248,0.0,2.0,57,0.00,,,0.00,WUHU216HW,2013-05-11 20:36:00,
2013-05-11 16:41:00,90.3,72.9,29.94,WSW,248,0.0,5.3,57,0.00,,,0.00,WUHU216HW,2013-05-11 20:41:00,
2013-05-11 16:46:00,90.1,72.2,29.94,WNW,293,1.7,5.3,56,0.00,,,0.00,WUHU216HW,2013-05-11 20:46:00,
2013-05-11 16:51:00,89.7,72.4,29.94,West,270,2.0,3.5,57,0.00,,,0.00,WUHU216HW,2013-05-11 20:51:00,
2013-05-11 16:56:00,89.7,72.4,29.94,WNW,293,0.0,2.6,57,0.00,,,0.00,WUHU216HW,2013-05-11 20:56:00,
2013-05-11 17:01:00,89.7,72.4,29.94,WNW,293,2.2,2.6,57,0.00,,,0.00,WUHU216HW,2013-05-11 21:01:00,
2013-05-11 17:06:00,89.4,71.0,29.94,WNW,293,5.5,5.5,55,0.00,,,0.00,WUHU216HW,2013-05-11 21:06:00,
2013-05-11 17:11:00,88.8,71.1,29.94,WNW,293,3.1,5.5,56,0.00,,,0.00,WUHU216HW,2013-05-11 21:11:00,
2013-05-11 17:16:00,88.7,70.9,29.94,WNW,293,0.0,5.5,56,0.00,,,0.00,WUHU216HW,2013-05-11 21:16:00,
2013-05-11 17:21:00,88.5,71.3,29.94,West,270,0.0,5.5,57,0.00,,,0.00,WUHU216HW,2013-05-11 21:21:00,
2013-05-11 17:26:00,88.8,72.2,29.94,West,270,0.0,1.5,58,0.00,,,0.00,WUHU216HW,2013-05-11 21:26:00,
2013-05-11 17:31:00,89.2,72.2,29.94,West,270,1.5,4.2,57,0.00,,,0.00,WUHU216HW,2013-05-11 21:31:00,
2013-05-11 17:36:00,89.7,71.9,29.94,West,270,0.0,4.2,56,0.00,,,0.00,WUHU216HW,2013-05-11 21:36:00,
2013-05-11 17:41:00,90.1,72.8,29.94,West,270,1.7,2.9,57,0.00,,,0.00,WUHU216HW,2013-05-11 21:41:00,
2013-05-11 17:46:00,90.6,72.7,29.94,West,270,2.4,2.9,56,0.00,,,0.00,WUHU216HW,2013-05-11 21:46:00,
2013-05-11 17:51:00,91.0,71.4,29.94,WNW,293,3.3,3.3,53,0.00,,,0.00,WUHU216HW,2013-05-11 21:51:00,
2013-05-11 17:56:00,90.5,70.4,29.94,WNW,293,3.8,4.6,52,0.00,,,0.00,WUHU216HW,2013-05-11 21:56:00,
2013-05-11 18:01:00,90.1,70.6,29.94,WSW,248,1.5,6.0,53,0.00,,,0.00,WUHU216HW,2013-05-11 22:01:00,
2013-05-11 18:06:00,89.9,70.4,29.95,West,270,7.1,7.1,53,0.00,,,0.00,WUHU216HW,2013-05-11 22:06:00,
2013-05-11 18:11:00,89.7,70.3,29.95,West,270,2.4,9.1,53,0.00,,,0.00,WUHU216HW,2013-05-11 22:11:00,
2013-05-11 18:16:00,89.4,69.4,29.95,WNW,293,8.2,12.7,52,0.00,,,0.00,WUHU216HW,2013-05-11 22:16:00,
2013-05-11 18:21:00,89.4,69.4,29.95,WNW,293,11.8,12.7,52,0.00,,,0.00,WUHU216HW,2013-05-11 22:21:00,
2013-05-11 18:26:00,89.4,69.4,29.95,West,270,5.3,11.8,52,0.00,,,0.00,WUHU216HW,2013-05-11 22:26:00,
2013-05-11 18:31:00,89.2,69.2,29.95,WSW,248,5.5,8.2,52,0.00,,,0.00,WUHU216HW,2013-05-11 22:31:00,
2013-05-11 18:36:00,89.2,69.8,29.95,West,270,9.6,9.6,53,0.00,,,0.00,WUHU216HW,2013-05-11 22:36:00,
2013-05-11 18:41:00,89.2,69.6,29.95,West,270,5.1,9.6,54,0.00,,,0.00,WUHU216HW,2013-05-11 22:41:00,
2013-05-11 18:46:00,89.0,69.6,29.96,WNW,293,2.6,7.8,53,0.00,,,0.00,WUHU216HW,2013-05-11 22:46:00,
2013-05-11 18:51:00,89.4,70.5,29.95,WNW,293,7.3,7.3,54,0.00,,,0.00,WUHU216HW,2013-05-11 22:51:00,
2013-05-11 18:56:00,89.2,70.3,29.95,WNW,293,0.8,7.3,54,0.00,,,0.00,WUHU216HW,2013-05-11 22:56:00,
2013-05-11 19:01:00,89.2,69.8,29.95,West,270,4.6,6.4,53,0.00,,,0.00,WUHU216HW,2013-05-11 23:01:00,
2013-05-11 19:06:00,88.5,69.1,29.96,WSW,248,3.5,6.4,53,0.00,,,0.00,WUHU216HW,2013-05-11 23:06:00,
2013-05-11 19:11:00,88.1,69.4,29.96,West,270,2.9,6.0,54,0.00,,,0.00,WUHU216HW,2013-05-11 23:11:00,
2013-05-11 19:16:00,87.9,69.2,29.96,West,270,0.0,5.1,54,0.00,,,0.00,WUHU216HW,2013-05-11 23:16:00,
2013-05-11 19:21:00,87.8,69.6,29.96,WNW,293,2.6,5.1,55,0.00,,,0.00,WUHU216HW,2013-05-11 23:21:00,
2013-05-11 19:26:00,87.4,69.2,29.96,WNW,293,6.4,6.4,55,0.00,,,0.00,WUHU216HW,2013-05-11 23:26:00,
2013-05-11 19:31:00,87.0,69.4,29.96,WNW,293,2.6,6.4,56,0.00,,,0.00,WUHU216HW,2013-05-11 23:31:00,
2013-05-11 19:36:00,86.5,69.4,29.97,WNW,293,4.4,4.4,57,0.00,,,0.00,WUHU216HW,2013-05-11 23:36:00,
2013-05-11 19:41:00,86.1,69.6,29.97,WNW,293,2.0,4.4,58,0.00,,,0.00,WUHU216HW,2013-05-11 23:41:00,
2013-05-11 19:46:00,85.6,69.6,29.97,WNW,293,2.6,3.5,59,0.00,,,0.00,WUHU216HW,2013-05-11 23:46:00,
2013-05-11 19:51:00,85.1,69.7,29.97,WNW,293,0.0,3.1,60,0.00,,,0.00,WUHU216HW,2013-05-11 23:51:00,
2013-05-11 19:56:00,84.9,69.5,29.98,WNW,293,0.0,2.4,60,0.00,,,0.00,WUHU216HW,2013-05-11 23:56:00,
2013-05-11 20:01:00,84.7,69.8,29.98,WNW,293,1.7,2.6,61,0.00,,,0.00,WUHU216HW,2013-05-12 00:01:00,
2013-05-11 20:06:00,84.5,69.6,29.98,WNW,293,0.0,2.6,61,0.00,,,0.00,WUHU216HW,2013-05-12 00:06:00,
2013-05-11 20:11:00,84.3,69.9,29.98,WNW,293,0.0,1.3,62,0.00,,,0.00,WUHU216HW,2013-05-12 00:11:00,
2013-05-11 20:16:00,84.2,69.8,29.99,WNW,293,0.0,0.2,62,0.00,,,0.00,WUHU216HW,2013-05-12 00:16:00,
2013-05-11 20:21:00,84.0,69.6,29.99,WNW,293,0.0,0.0,62,0.00,,,0.00,WUHU216HW,2013-05-12 00:21:00,
2013-05-11 20:26:00,83.8,69.8,29.99,WNW,293,0.0,0.0,63,0.00,,,0.00,WUHU216HW,2013-05-12 00:26:00,
2013-05-11 20:31:00,83.4,69.5,29.99,WNW,293,0.0,0.0,63,0.00,,,0.00,WUHU216HW,2013-05-12 00:31:00,
2013-05-11 20:36:00,83.3,69.3,30.00,WNW,293,0.0,0.0,63,0.00,,,0.00,WUHU216HW,2013-05-12 00:36:00,
2013-05-11 20:41:00,83.1,69.1,30.00,WNW,293,0.0,0.0,63,0.00,,,0.00,WUHU216HW,2013-05-12 00:41:00,
2013-05-11 20:46:00,82.9,68.9,30.00,WNW,293,0.0,0.0,63,0.00,,,0.00,WUHU216HW,2013-05-12 00:46:00,
2013-05-11 20:51:00,82.5,69.0,30.00,WNW,293,0.0,0.0,64,0.00,,,0.00,WUHU216HW,2013-05-12 00:51:00,
2013-05-11 20:56:00,82.2,68.7,30.00,WNW,293,0.0,0.0,64,0.00,,,0.00,WUHU216HW,2013-05-12 00:56:00,
2013-05-11 21:01:00,82.0,69.0,30.00,WNW,293,0.0,0.0,65,0.00,,,0.00,WUHU216HW,2013-05-12 01:01:00,
2013-05-11 21:06:00,81.6,68.7,30.00,WNW,293,0.0,0.0,65,0.00,,,0.00,WUHU216HW,2013-05-12 01:06:00,
2013-05-11 21:11:00,81.5,68.9,30.00,WNW,293,0.0,0.0,66,0.00,,,0.00,WUHU216HW,2013-05-12 01:11:00,
2013-05-11 21:16:00,81.3,68.3,30.01,WNW,293,0.0,0.0,65,0.00,,,0.00,WUHU216HW,2013-05-12 01:16:00,
2013-05-11 21:21:00,81.1,68.6,30.01,WNW,293,0.0,0.0,66,0.00,,,0.00,WUHU216HW,2013-05-12 01:21:00,
2013-05-11 21:26:00,80.9,68.5,30.01,WNW,293,0.0,0.0,66,0.00,,,0.00,WUHU216HW,2013-05-12 01:26:00,
2013-05-11 21:31:00,80.7,68.3,30.01,WNW,293,0.0,0.0,66,0.00,,,0.00,WUHU216HW,2013-05-12 01:31:00,
2013-05-11 21:36:00,80.4,68.0,30.01,WNW,293,0.0,0.0,66,0.00,,,0.00,WUHU216HW,2013-05-12 01:36:00,
2013-05-11 21:41:00,80.4,68.4,30.01,WNW,293,0.0,0.0,67,0.00,,,0.00,WUHU216HW,2013-05-12 01:41:00,
2013-05-11 21:46:00,80.2,68.2,30.01,WNW,293,0.0,0.0,67,0.00,,,0.00,WUHU216HW,2013-05-12 01:46:00,
2013-05-11 21:51:00,80.2,68.2,30.02,WNW,293,0.0,0.0,67,0.00,,,0.00,WUHU216HW,2013-05-12 01:51:00,
2013-05-11 21:56:00,80.0,68.5,30.02,WNW,293,0.0,0.0,68,0.00,,,0.00,WUHU216HW,2013-05-12 01:56:00,
2013-05-11 22:01:00,79.8,68.8,30.02,WNW,293,0.0,0.0,68,0.00,,,0.00,WUHU216HW,2013-05-12 02:01:00,
2013-05-11 22:06:00,79.8,68.8,30.02,WNW,293,0.0,0.0,69,0.00,,,0.00,WUHU216HW,2013-05-12 02:06:00,
2013-05-11 22:11:00,79.5,68.4,30.01,WNW,293,0.0,0.0,69,0.00,,,0.00,WUHU216HW,2013-05-12 02:11:00,
2013-05-11 22:16:00,79.5,68.4,30.01,WNW,293,0.0,0.0,69,0.00,,,0.00,WUHU216HW,2013-05-12 02:16:00,
2013-05-11 22:21:00,79.3,68.2,30.01,WNW,293,0.0,0.0,69,0.00,,,0.00,WUHU216HW,2013-05-12 02:21:00,
2013-05-11 22:26:00,78.9,68.3,30.00,WNW,293,0.0,0.0,70,0.00,,,0.00,WUHU216HW,2013-05-12 02:26:00,
2013-05-11 22:31:00,78.8,68.1,30.01,WNW,293,0.0,0.0,70,0.00,,,0.00,WUHU216HW,2013-05-12 02:31:00,
2013-05-11 22:36:00,78.6,68.3,30.01,WNW,293,0.0,0.0,71,0.00,,,0.00,WUHU216HW,2013-05-12 02:36:00,
2013-05-11 22:41:00,78.4,67.8,30.01,WNW,293,0.0,0.0,71,0.00,,,0.00,WUHU216HW,2013-05-12 02:41:00,
2013-05-11 22:46:00,77.9,67.7,30.02,WNW,293,0.0,0.0,71,0.00,,,0.00,WUHU216HW,2013-05-12 02:46:00,
2013-05-11 22:51:00,77.7,67.2,30.02,WNW,293,0.0,0.0,70,0.00,,,0.00,WUHU216HW,2013-05-12 02:51:00,
2013-05-11 22:56:00,77.3,66.8,30.02,WNW,293,0.0,0.0,70,0.00,,,0.00,WUHU216HW,2013-05-12 02:56:00,
2013-05-11 23:01:00,77.0,66.9,30.02,WNW,293,0.0,0.0,71,0.00,,,0.00,WUHU216HW,2013-05-12 03:01:00,
2013-05-11 23:06:00,76.8,66.7,30.02,WNW,293,0.0,0.0,72,0.00,,,0.00,WUHU216HW,2013-05-12 03:06:00,
2013-05-11 23:11:00,76.6,66.9,30.01,WNW,293,0.0,0.0,72,0.00,,,0.00,WUHU216HW,2013-05-12 03:11:00,
2013-05-11 23:16:00,76.6,66.7,30.02,WNW,293,0.0,0.0,72,0.00,,,0.00,WUHU216HW,2013-05-12 03:16:00,
2013-05-11 23:21:00,76.4,66.7,30.02,WNW,293,0.0,0.0,73,0.00,,,0.00,WUHU216HW,2013-05-12 03:21:00,
2013-05-11 23:26:00,76.2,66.9,30.02,WNW,293,0.0,0.0,73,0.00,,,0.00,WUHU216HW,2013-05-12 03:26:00,
2013-05-11 23:31:00,76.1,67.2,30.02,WNW,293,0.0,0.0,74,0.00,,,0.00,WUHU216HW,2013-05-12 03:31:00,
2013-05-11 23:36:00,76.1,67.2,30.02,WNW,293,0.0,0.0,74,0.00,,,0.00,WUHU216HW,2013-05-12 03:36:00,
2013-05-11 23:41:00,75.9,67.0,30.02,WNW,293,0.0,0.0,74,0.00,,,0.00,WUHU216HW,2013-05-12 03:41:00,
2013-05-11 23:46:00,75.7,67.2,30.01,WNW,293,0.0,0.0,75,0.00,,,0.00,WUHU216HW,2013-05-12 03:46:00,
2013-05-11 23:51:00,75.7,67.2,30.02,WNW,293,0.0,0.0,75,0.00,,,0.00,WUHU216HW,2013-05-12 03:51:00,
2013-05-11 23:56:00,75.7,67.2,30.02,WNW,293,0.0,0.0,75,0.00,,,0.00,WUHU216HW,2013-05-12 03:56:00,